Location: Altavilla Irpina
(41.0000°N, 14.7833°E)
Time: 06:08:07
(UTC+00:00)

Cosmos 2082 Rocket - Pass Details

Date: 19 May 2025
Orbit: 832 x 853 km, 71.0° (Epoch: 14 June)

Event Time Altitude Azimuth Distance (km) Brightness Sun altitude
Exits shadow 20:00:16 19° 101° (E) 1,861 3.5 -16.5°
Maximum altitude 20:00:20 19° 100° (E) 1,861 3.5 -16.5°
Drops below altitude 10° 20:04:12 10° 56° (NE) 2,447 4.5 -17.0°
Sets 20:07:17 0° 39° (NE) 3,388 5.5 -17.4°
